Location: Allos
(44.2333°N, 6.6333°E)
Time: 08:41:33
(UTC+00:00)

LO-87 - Visible Passes

Search period start: 09 May 2021 00:00
Search period end: 19 May 2021 00:00
Orbit: 468 x 487 km, 97.4° (Epoch: 08 May)

Date Brightness Start Highest point End Pass type
(mag) Time Alt. Az. Time Alt. Az. Time Alt. Az.
09 May ? 22:02:10 20° NE 22:02:10 20° NE 22:03:58 10° NNE visible
09 May ? 23:36:23 15° NW 23:36:23 15° NW 23:37:17 10° NW visible
10 May ? 21:35:25 11° NE 21:35:25 11° NE 21:36:16 10° NE visible
10 May ? 23:09:38 25° NW 23:09:38 25° NW 23:11:19 10° NNW visible
11 May ? 22:42:53 33° N 22:42:53 33° N 22:44:57 10° N visible
12 May ? 22:16:07 26° NE 22:16:07 26° NE 22:18:17 10° N visible
12 May ? 23:50:20 12° WNW 23:50:20 12° WNW 23:50:46 10° NW visible
13 May ? 21:49:22 16° NE 21:49:22 16° NE 21:51:08 10° NNE visible
13 May ? 23:23:35 21° NW 23:23:35 21° NW 23:25:08 10° NNW visible
14 May ? 22:56:49 34° NNW 22:56:49 34° NNW 22:58:57 10° NNW visible
15 May ? 22:30:03 35° NNE 22:30:03 35° NNE 22:32:27 10° N visible
16 May ? 22:03:17 22° NE 22:03:17 22° NE 22:05:35 10° NNE visible
16 May ? 23:37:30 17° WNW 23:37:30 17° WNW 23:38:48 10° NW visible
17 May ? 21:36:31 12° ENE 21:36:32 12° ENE 21:37:58 10° NE visible
17 May ? 23:10:44 31° NW 23:10:44 31° NW 23:12:51 10° NNW visible
18 May ? 22:43:58 43° N 22:43:58 43° N 22:46:30 10° N visible
